Weather History for Coningsby, United Kingdom

Change the Weather History Date:

Sunday, May 25, 2014

  Actual Average Record
Temperature  
Mean Temperature 56 °F -  
Max Temperature 66 °F - - ()
Min Temperature 47 °F - - ()
Degree Days  
Heating Degree Days 8    
Growing Degree Days 6 (Base 50)    
Moisture  
Dew Point 45 °F    
Average Humidity 66    
Maximum Humidity 100    
Minimum Humidity 28    
Precipitation  
Precipitation 0.00 in - - ()
Sea Level Pressure  
Sea Level Pressure 29.99 in    
Wind  
Wind Speed 9 mph ()    
Max Wind Speed 17 mph    
Max Gust Speed -    
Visibility 9.1 miles    
Events Rain    
T = Trace of Precipitation, MM = Missing Value Source: Averaged Metar Reports

Daily Weather History Graph

Daily Weather History Graph

Search for Another Location

Airport:

Trip Planner

Search our weather history database for the weather conditions in past years. The results will help you decide how hot, cold, wet, or windy it might be!

Date:

Astronomy

May. 25, 2014 Rise Set
Actual Time 4:48 AM BST 9:07 PM BST
Civil Twilight 4:01 AM BST 9:55 PM BST
Nautical Twilight 2:51 AM BST 11:06 PM BST
Astronomical Twilight 1:30 AM BST 12:25 AM BST
Moon 3:16 AM BST (5/25) 5:25 PM BST (5/25)
Length of Visible Light 17h 53m
Length of Day
16h 19m
Waning Crescent, 12% of the Moon is Illuminated
May 25
Waning Crescent
May 28
New
Jun 5
First Quarter
Jun 13
Full
Jun 19
Last Quarter

Hourly Weather History & Observations

Time (BST) Temp. Dew Point Humidity Pressure Visibility Wind Dir Wind Speed Gust Speed Precip Events Conditions
12:00 AM 49 °F 47 °F 89% 29.90 in 19 mi SSE 6.9 mph - - Rain Light Rain Showers
12:50 AM 48.2 °F 46.4 °F 93% 29.89 in 6.2 mi South 3.5 mph - N/A   Mostly Cloudy
1:00 AM 49 °F 47 °F 91% 29.91 in 19 mi South 3.5 mph - - Rain Light Rain
1:50 AM 48.2 °F 46.4 °F 93% 29.89 in 6.2 mi SE 4.6 mph - N/A   Mostly Cloudy
2:00 AM 48 °F 47 °F 93% 29.91 in 9 mi SE 4.6 mph - -   Mostly Cloudy
2:50 AM 48.2 °F 46.4 °F 93% 29.92 in 6.2 mi SSE 6.9 mph - N/A   Mostly Cloudy
3:00 AM 49 °F 47 °F 91% 29.92 in 9 mi SSE 6.9 mph - - Rain Light Rain
3:50 AM 50.0 °F 48.2 °F 94% 29.92 in 4.3 mi SSE 6.9 mph - N/A Rain Rain
4:00 AM 49 °F 48 °F 93% 29.92 in 4 mi SSE 6.9 mph - - Rain Rain
4:50 AM 50.0 °F 48.2 °F 94% 29.92 in 3.7 mi SSE 9.2 mph - N/A Rain Light Rain
5:00 AM 50 °F 48 °F 92% 29.93 in 4 mi SSE 9.2 mph - - Rain Light Rain
5:50 AM 50.0 °F 50.0 °F 100% 29.92 in 4.3 mi South 11.5 mph - N/A Rain Light Rain
6:00 AM 51 °F 49 °F 91% 29.94 in 4 mi South 11.5 mph - - Rain Light Rain
7:00 AM 51 °F 50 °F 94% 29.95 in 5 mi South 11.5 mph - - Rain Light Rain
7:50 AM 51.8 °F 50.0 °F 94% 29.95 in 6.2 mi South 13.8 mph - N/A   Mostly Cloudy
8:00 AM 52 °F 50 °F 89% 29.97 in 9 mi South 13.8 mph - - Rain Light Rain
8:50 AM 53.6 °F 50.0 °F 88% 29.98 in 6.2 mi South 15.0 mph - N/A   Mostly Cloudy
9:00 AM 54 °F 49 °F 79% 29.99 in 16 mi South 15.0 mph - -   Mostly Cloudy
9:50 AM 57.2 °F 48.2 °F 72% 29.98 in 6.2 mi South 13.8 mph - N/A   Scattered Clouds
10:00 AM 57 °F 48 °F 62% 30.00 in 19 mi South 13.8 mph - -   Partly Cloudy
10:50 AM 59.0 °F 46.4 °F 63% 30.01 in 6.2 mi South 13.8 mph - N/A   Scattered Clouds
11:00 AM 59 °F 46 °F 52% 30.01 in 19 mi South 13.8 mph - -   Partly Cloudy
11:50 AM 60.8 °F 44.6 °F 55% 30.01 in 6.2 mi South 16.1 mph - N/A   Scattered Clouds
12:00 PM 61 °F 45 °F 45% 30.01 in 22 mi South 16.1 mph - -   Partly Cloudy
12:50 PM 62.6 °F 42.8 °F 48% 30.01 in 6.2 mi South 16.1 mph - N/A   Scattered Clouds
1:00 PM 63 °F 43 °F 36% 30.01 in 25 mi South 16.1 mph - -   Partly Cloudy
1:50 PM 64.4 °F 41.0 °F 42% 30.01 in 6.2 mi South 15.0 mph - N/A   Scattered Clouds
2:00 PM 64 °F 42 °F 33% 30.02 in 22 mi South 15.0 mph - -   Partly Cloudy
2:50 PM 62.6 °F 42.8 °F 48% 30.01 in 6.2 mi SSW 16.1 mph - N/A   Scattered Clouds
3:00 PM 63 °F 42 °F 34% 30.02 in 22 mi SSW 16.1 mph - -   Partly Cloudy
4:00 PM 63 °F 41 °F 32% 30.02 in 22 mi South 15.0 mph - -   Partly Cloudy
4:50 PM 64.4 °F 41.0 °F 42% 30.01 in - SSW 17.3 mph - N/A   Clear
5:00 PM 64 °F 41 °F 31% 30.02 in 22 mi SSW 17.3 mph - -   Partly Cloudy
5:50 PM 64.4 °F 39.2 °F 40% 30.01 in - SSW 16.1 mph - N/A   Clear
6:00 PM 64 °F 39 °F 28% 30.02 in 22 mi SSW 16.1 mph - -   Scattered Clouds
6:50 PM 62.6 °F 39.2 °F 42% 30.01 in - SSW 13.8 mph - N/A   Clear
7:00 PM 63 °F 39 °F 30% 30.03 in 22 mi SSW 13.8 mph - -   Scattered Clouds
7:50 PM 60.8 °F 41.0 °F 48% 30.04 in - SSW 9.2 mph - N/A   Clear
8:00 PM 60 °F 42 °F 39% 30.05 in 22 mi SSW 9.2 mph - -   Scattered Clouds
8:50 PM 55.4 °F 42.8 °F 63% 30.06 in - SSW 6.9 mph - N/A   Clear
9:00 PM 55 °F 43 °F 54% 30.07 in 22 mi SSW 6.9 mph - -   Scattered Clouds
10:00 PM 51 °F 44 °F 68% 30.09 in 19 mi South 5.8 mph - -   Scattered Clouds
10:50 PM 50.0 °F 42.8 °F 76% 30.09 in - South 2.3 mph - N/A   Clear
11:00 PM 50 °F 43 °F 69% 30.10 in 19 mi South 2.3 mph - -   Scattered Clouds
11:50 PM 48.2 °F 42.8 °F 82% 30.09 in - SSE 4.6 mph - N/A   Clear